Temp
16 16 16 17 18 18 18 18 17 17 19 18 19 19 19 18 18 17 15 13 13 13 13 14 14 14 14 13 13 12 11 11 11 11 10 10 10 10 9 9 8 8 8 8
16 16 17 17 18 18 17 17 18 17 18 18 19 20 20 18 16 15 16 15 17 14 13 13 13 13 14 14 13 13 11 11 12 11 11 10 10 10 10 9 9 9 9 8
16 17 17 18 18 18 19 17 18 18 19 18 19 20 19 17 19 17 17 17 18 17 14 15 14 13 13 13 13 12 12 11 11 11 11 11 10 10 10 9 9 9 9 9
17 17 18 18 19 19 19 19 19 19 18 18 20 20 19 19 18 18 18 16 17 17 14 14 15 13 13 14 13 12 12 12 11 11 11 10 10 10 10 9 9 9 9 9
17 17 18 18 18 18 19 19 19 19 19 20 20 19 17 18 19 18 18 17 16 16 15 15 16 15 14 14 13 12 12 12 12 11 11 10 10 10 9 9 9 9 9 9
17 17 17 18 18 18 18 19 19 19 19 18 19 19 18 18 19 19 18 17 17 16 15 15 15 15 14 14 13 12 12 11 11 10 11 10 10 9 9 8 9 9 9 9
16 17 17 18 18 18 18 18 18 16 15 14 19 19 18 19 18 18 17 17 17 16 15 14 14 15 14 14 13 12 12 11 11 10 10 10 10 9 9 8 8 9 9 9
16 17 17 17 18 18 18 18 18 14 13 16 19 19 19 18 18 17 17 17 16 15 15 13 13 15 14 14 13 12 11 11 11 10 10 10 9 8 8 7 7 7 8 9
16 17 18 18 18 18 18 18 18 18 19 17 18 17 17 18 18 18 17 17 16 15 15 14 13 14 13 13 13 12 12 11 11 10 10 10 9 7 7 6 6 7 8 8
17 16 17 18 18 18 18 18 18 18 15 15 16 16 18 17 17 17 17 16 16 15 14 13 14 14 13 14 14 13 12 11 10 10 10 10 8 7 5 5 6 7 8 8
17 17 17 17 18 18 18 18 18 18 18 14 12 15 18 18 17 17 13 15 15 15 14 14 14 14 14 14 13 12 11 10 10 10 11 10 8 7 7 6 7 7 8 8
17 17 17 17 18 18 18 18 18 18 18 18 17 17 17 16 16 15 14 10 16 15 14 13 13 15 14 12 12 12 10 10 10 10 10 10 9 8 7 7 7 7 7 8
17 17 17 17 17 18 18 18 18 18 18 18 16 17 14 13 15 14 11 13 14 14 13 13 12 13 12 12 12 11 10 10 10 10 10 9 9 9 8 8 7 8 7 7
16 16 16 16 17 17 16 18 18 18 18 18 18 16 11 12 14 12 11 13 14 13 13 13 12 12 12 11 11 10 10 10 10 10 10 9 9 9 9 8 8 8 7 7
15 15 15 16 16 16 17 17 17 17 18 17 17 16 13 14 13 10 15 16 15 13 12 13 14 13 12 12 11 11 10 10 10 10 10 9 8 8 8 8 7 7 7 7
14 14 15 15 16 16 16 17 17 17 17 17 15 16 15 15 16 14 15 15 13 11 12 13 14 14 13 12 11 11 10 10 10 10 10 9 8 7 6 6 6 6 6 6
13 14 14 14 14 15 15 16 16 17 17 17 15 15 16 15 15 15 14 14 13 11 12 13 14 13 13 12 12 10 10 10 10 10 10 8 8 8 7 7 6 6 6 6
12 12 13 13 14 12 15 16 16 16 17 17 16 16 16 15 14 14 14 14 13 14 14 13 13 13 13 13 13 11 10 10 10 9 9 9 8 8 7 7 7 6 5 5
12 12 13 12 13 14 14 15 15 16 17 17 16 16 14 13 14 14 13 12 13 13 13 12 12 12 12 12 13 12 10 10 10 10 10 9 8 7 7 7 7 7 6 6
12 12 13 13 12 11 14 15 15 15 15 14 15 15 14 15 15 13 14 14 13 12 12 12 12 13 12 11 11 11 10 9 9 10 9 9 8 8 7 7 7 7 6 6
12 12 12 12 13 13 13 14 14 14 11 13 12 12 14 15 15 14 14 13 12 12 12 12 12 13 12 12 11 10 10 9 9 9 9 9 8 8 7 7 7 6 6 6
11 11 12 12 13 12 11 12 12 13 10 10 11 10 7 10 12 13 13 12 12 12 12 13 13 12 12 11 10 10 10 9 9 9 9 9 9 8 8 8 7 7 6 6
10 9 9 10 11 10 10 10 11 11 11 11 9 9 5 8 9 11 12 13 12 12 12 13 12 12 11 10 10 10 9 9 9 9 9 9 9 9 8 8 8 7 7 6
8 8 9 9 10 8 8 9 9 9 10 10 11 8 6 7 7 10 12 12 12 12 12 12 12 11 10 10 9 9 9 9 9 9 8 8 8 8 8 8 7 7 7 6
7 8 7 7 7 8 7 8 9 8 8 9 10 8 9 5 8 11 11 11 12 11 11 11 11 10 10 9 9 9 9 9 8 8 8 8 8 8 8 8 7 7 7 7
7 6 7 7 7 6 7 6 5 6 6 6 8 7 8 8 9 9 9 10 10 11 10 10 10 9 9 8 8 8 9 9 9 9 8 8 8 8 8 7 7 7 7 7
Height
3187 3188 3185 3187 3189 3192 3193 3191 3197 3195 3189 3192 3188 3185 3184 3184 3187 3189 3194 3197 3202 3203 3198 3198 3198 3198 3198 3197 3195 3195 3194 3193 3192 3190 3189 3187 3184 3181 3178 3176 3175 3175 3176 3178
3186 3184 3185 3187 3188 3188 3191 3193 3197 3193 3190 3193 3187 3183 3182 3182 3190 3199 3193 3188 3188 3192 3193 3193 3196 3196 3196 3196 3194 3194 3194 3195 3192 3190 3188 3186 3185 3183 3181 3179 3178 3177 3178 3179
3181 3180 3182 3184 3185 3186 3188 3188 3191 3186 3190 3189 3185 3184 3184 3184 3180 3178 3185 3186 3189 3188 3187 3191 3191 3192 3193 3193 3193 3192 3193 3191 3190 3189 3188 3185 3184 3184 3182 3181 3180 3179 3179 3179
3179 3176 3178 3181 3181 3182 3183 3184 3183 3183 3186 3184 3181 3182 3179 3180 3182 3182 3183 3184 3183 3182 3184 3189 3193 3194 3193 3192 3191 3191 3190 3191 3190 3188 3187 3185 3184 3184 3183 3182 3181 3180 3179 3178
3175 3175 3175 3176 3177 3178 3179 3180 3180 3179 3178 3177 3177 3180 3178 3178 3177 3179 3181 3179 3179 3177 3184 3190 3193 3194 3193 3192 3190 3190 3190 3189 3188 3187 3186 3184 3182 3182 3183 3181 3179 3179 3178 3176
3172 3171 3173 3174 3174 3175 3178 3178 3178 3177 3177 3174 3179 3178 3175 3174 3174 3174 3174 3175 3177 3183 3186 3191 3193 3192 3190 3190 3191 3189 3189 3189 3188 3185 3183 3181 3180 3179 3180 3179 3177 3176 3177 3176
3168 3167 3169 3171 3171 3173 3174 3175 3175 3177 3176 3176 3175 3173 3170 3172 3171 3173 3176 3175 3180 3185 3190 3190 3191 3192 3187 3188 3189 3188 3188 3187 3187 3184 3181 3178 3176 3176 3176 3176 3175 3175 3175 3174
3167 3166 3166 3168 3169 3171 3171 3173 3172 3176 3177 3172 3174 3172 3172 3176 3180 3178 3178 3179 3183 3182 3179 3179 3178 3190 3187 3187 3188 3187 3186 3185 3183 3181 3179 3176 3175 3174 3169 3170 3171 3173 3173 3172
3162 3161 3162 3164 3164 3167 3167 3168 3169 3170 3169 3170 3168 3168 3173 3170 3174 3179 3179 3178 3181 3179 3179 3181 3180 3189 3189 3188 3186 3184 3182 3181 3181 3180 3176 3173 3171 3168 3162 3161 3165 3171 3171 3171
3158 3159 3157 3157 3160 3162 3164 3166 3168 3167 3169 3171 3165 3165 3164 3168 3173 3174 3176 3178 3179 3180 3179 3180 3185 3187 3187 3185 3182 3178 3180 3179 3178 3176 3173 3170 3169 3165 3150 3153 3164 3167 3170 3171
3156 3158 3153 3155 3156 3159 3162 3161 3163 3164 3164 3164 3167 3160 3161 3164 3168 3164 3168 3174 3176 3180 3183 3184 3183 3182 3181 3179 3179 3181 3181 3181 3178 3175 3172 3169 3167 3165 3159 3160 3163 3167 3169 3169
3151 3153 3151 3152 3153 3157 3156 3158 3160 3160 3162 3161 3160 3154 3158 3166 3169 3174 3167 3159 3178 3177 3182 3180 3179 3173 3175 3179 3178 3179 3179 3179 3179 3176 3172 3169 3167 3166 3165 3165 3166 3168 3169 3169
3145 3146 3149 3150 3152 3151 3152 3154 3156 3158 3159 3157 3157 3155 3156 3159 3157 3162 3169 3173 3175 3174 3180 3178 3178 3170 3174 3178 3178 3178 3176 3178 3177 3176 3173 3170 3170 3168 3168 3168 3168 3168 3168 3169
3142 3145 3148 3150 3150 3152 3156 3153 3152 3154 3155 3155 3151 3152 3157 3153 3154 3152 3153 3173 3169 3176 3177 3177 3176 3169 3174 3177 3178 3176 3176 3176 3175 3175 3173 3171 3171 3170 3169 3168 3168 3168 3168 3168
3141 3142 3145 3145 3145 3147 3150 3152 3149 3149 3151 3152 3153 3148 3153 3154 3147 3157 3163 3164 3168 3171 3175 3167 3170 3170 3175 3177 3178 3178 3175 3173 3175 3174 3172 3170 3169 3169 3168 3167 3168 3168 3167 3167
3141 3142 3143 3144 3143 3144 3143 3144 3147 3149 3148 3151 3151 3144 3147 3148 3152 3156 3159 3164 3167 3172 3159 3161 3168 3172 3171 3173 3175 3177 3175 3173 3173 3172 3171 3169 3170 3169 3167 3167 3167 3167 3167 3167
3140 3141 3141 3141 3142 3143 3141 3142 3142 3144 3144 3144 3149 3146 3142 3144 3148 3154 3158 3159 3158 3157 3156 3163 3167 3169 3170 3170 3172 3173 3173 3171 3171 3171 3170 3169 3168 3167 3165 3165 3165 3165 3164 3165
3139 3140 3140 3141 3141 3140 3139 3141 3141 3139 3137 3129 3133 3134 3138 3143 3143 3144 3149 3151 3154 3156 3159 3162 3166 3166 3166 3165 3166 3169 3170 3168 3169 3169 3169 3169 3168 3166 3166 3165 3164 3160 3160 3159
3137 3140 3140 3139 3137 3136 3137 3138 3136 3132 3127 3129 3130 3132 3135 3139 3138 3143 3144 3146 3155 3157 3157 3158 3161 3163 3164 3164 3164 3166 3167 3167 3167 3167 3167 3166 3166 3164 3164 3164 3163 3162 3160 3158
3134 3135 3138 3137 3137 3134 3134 3133 3131 3126 3126 3127 3125 3127 3126 3131 3137 3144 3147 3148 3150 3151 3152 3154 3157 3160 3162 3163 3164 3163 3163 3163 3164 3164 3163 3164 3165 3164 3162 3162 3162 3161 3160 3159
3128 3130 3130 3132 3130 3129 3129 3128 3125 3125 3130 3125 3122 3128 3125 3126 3133 3132 3142 3146 3151 3151 3150 3150 3152 3156 3158 3160 3161 3160 3159 3161 3161 3161 3161 3161 3162 3161 3161 3160 3159 3158 3157 3157
3123 3123 3123 3124 3123 3125 3125 3126 3126 3128 3123 3114 3123 3126 3127 3132 3136 3133 3135 3140 3145 3149 3148 3147 3148 3150 3152 3154 3156 3156 3156 3158 3160 3159 3159 3159 3159 3159 3158 3156 3155 3154 3154 3153
3121 3120 3120 3121 3121 3124 3125 3124 3124 3124 3120 3113 3108 3116 3115 3136 3133 3136 3139 3139 3141 3141 3146 3144 3144 3145 3148 3149 3150 3150 3152 3154 3153 3153 3155 3155 3155 3154 3154 3152 3151 3151 3149 3149
3118 3118 3118 3120 3121 3118 3115 3120 3116 3122 3122 3121 3107 3107 3116 3127 3115 3129 3135 3136 3140 3141 3142 3140 3140 3141 3144 3146 3145 3146 3147 3148 3150 3149 3149 3150 3150 3149 3148 3147 3145 3145 3144 3144
3119 3119 3118 3116 3114 3115 3114 3113 3111 3110 3114 3119 3110 3107 3108 3098 3128 3130 3133 3139 3135 3134 3135 3135 3136 3137 3139 3141 3142 3144 3144 3145 3146 3145 3146 3146 3146 3144 3143 3142 3141 3140 3139 3138
3117 3117 3116 3112 3112 3113 3113 3114 3108 3105 3097 3118 3110 3116 3120 3118 3122 3126 3129 3135 3126 3126 3126 3130 3134 3134 3135 3137 3140 3140 3140 3140 3140 3139 3139 3139 3139 3139 3138 3137 3135 3135 3133 3132
Wind_Speed
13 14 17 16 16 19 14 10 19 11 14 15 16 16 24 19 14 15 26 23 15 21 18 2 3 6 7 7 6 7 9 11 14 12 11 13 17 17 16 16 11 9 8 8
11 19 15 12 16 20 13 5 9 22 25 14 17 17 17 23 5 11 17 26 9 17 24 12 6 5 8 8 8 8 10 11 13 14 13 11 12 14 15 14 12 11 9 5
19 16 17 17 19 25 22 22 7 20 11 18 24 14 3 24 9 12 19 17 12 12 15 4 9 8 8 10 9 9 11 12 12 13 13 13 11 9 11 11 9 7 5 5
17 16 16 17 20 19 21 15 12 17 19 24 13 5 5 5 9 7 18 19 16 14 26 10 10 13 13 10 9 9 11 14 13 12 13 12 10 9 9 8 7 7 8 8
19 18 15 14 17 10 12 19 14 15 22 18 16 7 6 9 10 8 20 16 22 15 19 7 8 13 14 12 10 8 10 13 13 13 13 13 11 10 10 9 10 8 7 11
20 17 15 17 16 15 13 16 16 13 17 10 10 18 13 15 17 15 19 12 14 20 14 5 7 9 10 10 12 8 11 11 13 14 14 14 14 12 10 12 11 11 9 8
18 19 15 12 11 11 15 11 10 4 10 5 6 15 8 11 11 11 18 10 11 13 10 11 10 10 6 11 13 9 11 12 12 15 16 16 15 12 13 15 13 13 10 9
20 18 17 20 18 18 20 21 15 6 3 3 15 14 5 8 7 15 7 8 11 18 24 19 15 8 8 13 13 11 11 14 15 17 16 17 13 11 14 38 24 13 7 10
18 26 21 25 24 20 19 17 22 23 24 10 14 9 12 14 13 7 6 9 13 15 13 3 8 12 11 12 11 12 12 14 16 16 18 18 13 21 34 23 16 11 3 7
21 27 23 21 23 18 20 17 15 19 3 5 1 5 11 10 14 18 8 18 14 13 9 8 9 12 10 12 14 9 9 11 14 16 18 19 8 25 13 8 16 4 1 4
28 19 26 18 20 21 17 19 20 15 9 6 3 8 20 19 20 25 23 19 18 13 10 10 14 12 16 18 16 10 15 13 13 15 16 15 5 12 17 16 9 5 2 3
24 23 24 25 14 18 21 18 17 17 17 4 3 11 6 11 17 8 12 31 7 10 15 11 11 11 18 13 16 11 11 14 13 14 14 14 8 9 9 9 6 4 2 3
15 11 17 21 22 13 21 21 24 18 23 25 11 11 14 18 23 31 11 11 16 11 12 13 14 10 16 14 14 14 10 12 11 13 12 10 7 7 6 4 2 1 2 3
6 10 6 20 19 7 17 21 17 19 14 19 27 14 20 11 13 9 29 26 21 19 19 19 15 11 14 14 11 11 12 11 9 11 12 8 5 4 4 2 2 3 2 1
13 13 14 14 20 19 19 16 21 20 22 23 17 16 22 23 20 17 20 13 10 16 18 11 9 8 10 11 10 13 12 7 7 9 10 9 8 8 7 6 6 5 3 3
9 15 14 20 22 18 19 19 17 19 20 17 13 19 21 23 18 15 10 19 17 13 5 7 7 7 8 9 11 9 4 4 6 8 10 9 10 11 11 9 9 7 7 7
7 12 14 16 19 19 23 20 23 22 20 20 29 26 27 22 17 13 10 16 8 8 7 9 7 5 5 10 10 6 5 3 4 8 10 8 6 13 13 14 17 13 14 16
9 7 11 14 17 8 23 20 22 27 26 28 24 29 26 20 20 11 11 8 8 5 6 7 5 7 12 13 9 2 5 3 3 5 7 8 8 9 11 12 13 21 10 12
10 13 13 10 20 20 18 18 22 23 29 28 25 23 29 31 25 20 19 19 13 6 6 6 5 6 12 15 11 5 3 4 2 4 5 7 10 8 9 12 11 10 10 4
18 16 19 19 15 8 23 29 21 26 20 12 22 32 38 34 25 20 21 15 15 15 10 6 6 7 9 12 12 8 6 5 6 4 4 6 8 9 9 11 11 10 10 6
20 27 25 26 23 30 29 27 20 17 3 11 27 26 33 28 17 22 25 20 17 14 12 8 8 11 13 13 13 10 9 7 8 6 4 6 6 9 11 12 11 12 11 11
2 10 28 29 29 20 16 15 16 13 8 4 12 38 21 10 19 24 27 24 14 13 9 8 10 8 10 12 13 11 12 10 10 10 8 9 11 11 13 13 13 15 15 14
9 6 10 10 8 10 8 8 15 14 14 8 2 9 34 35 27 26 20 14 11 6 9 8 10 9 10 13 14 14 10 10 12 12 14 14 14 17 17 18 16 16 19 17
8 12 14 18 20 23 26 16 17 22 18 10 14 5 13 15 20 21 15 10 7 10 9 9 10 10 12 14 14 14 13 13 13 14 17 20 21 20 21 22 21 20 19 19
12 11 14 18 23 23 12 18 18 16 22 37 33 21 16 31 22 15 8 8 10 8 6 6 9 11 12 14 16 15 13 14 16 17 19 20 20 21 20 20 19 19 20 20
16 16 20 23 24 23 24 18 17 19 15 28 23 17 22 22 15 12 13 12 5 6 6 6 8 9 10 13 15 14 14 16 18 19 19 16 15 16 16 17 18 19 21 21
Wind_Direction
235 250 260 252 231 261 233 298 309 198 200 255 268 287 227 217 235 173 184 180 213 253 268 257 291 331 30 27 4 7 353 353 357 13 7 11 27 34 53 62 66 81 98 124
234 242 248 248 251 262 221 164 284 290 260 281 267 289 288 214 197 273 219 205 350 216 234 262 252 299 355 12 359 355 347 350 354 6 1 5 16 23 25 48 67 66 60 72
241 242 238 226 241 259 261 196 287 264 239 286 254 261 140 175 230 261 211 209 273 267 216 273 277 271 320 340 351 350 344 346 353 359 356 356 354 357 360 16 37 48 29 341
251 252 258 252 253 245 262 263 269 274 178 224 221 239 345 229 220 201 200 217 223 240 207 224 313 278 313 312 339 345 342 352 342 350 348 345 338 332 334 343 347 19 1 351
253 250 267 261 255 257 261 260 283 288 299 262 275 255 217 227 210 130 173 256 224 208 206 211 315 302 322 306 322 332 335 350 332 337 344 337 319 318 318 313 315 339 347 349
254 248 263 265 259 252 243 254 271 275 295 291 291 294 227 199 257 186 186 176 204 199 201 200 283 300 298 324 312 330 329 335 327 334 332 330 319 316 301 287 293 298 327 350
250 256 253 274 249 232 245 244 270 278 280 215 5 339 348 146 165 177 164 196 177 198 194 173 250 291 295 307 307 304 322 320 323 331 329 324 316 306 299 292 282 295 321 345
245 256 243 242 235 240 236 239 241 210 204 270 293 291 236 124 177 147 151 200 192 191 201 238 128 283 299 295 305 292 315 312 323 336 327 319 303 290 272 298 277 254 314 324
261 260 258 255 227 231 241 223 238 269 282 293 240 237 221 196 195 200 191 180 172 204 215 220 136 261 302 300 305 292 311 305 319 335 339 332 300 295 284 279 253 229 286 316
253 264 275 307 212 220 238 232 232 245 259 286 59 163 200 201 156 153 152 175 168 167 157 155 251 281 292 309 330 339 300 323 327 337 347 340 319 328 313 213 148 134 18 346
240 251 270 281 210 204 223 247 252 266 286 189 182 218 198 198 182 195 202 156 174 182 200 223 254 295 311 332 341 340 338 345 338 344 357 358 40 65 82 96 103 97 59 9
241 232 255 267 265 252 228 238 245 249 271 314 308 288 268 209 215 260 178 263 232 201 235 256 263 313 312 316 320 321 327 340 338 350 7 14 48 83 87 76 81 81 33 14
229 207 226 268 272 276 210 238 242 259 245 264 261 285 149 170 207 227 232 152 175 181 203 227 246 262 273 286 308 306 324 338 338 353 10 24 20 71 85 62 37 21 32 14
254 224 279 242 253 245 298 246 239 262 269 243 252 237 138 156 254 194 151 204 190 198 213 232 229 237 271 288 306 319 328 324 336 348 9 16 6 3 355 328 304 305 338 335
275 273 258 263 253 279 283 277 263 291 273 280 272 235 150 151 142 153 155 170 181 202 219 220 262 290 279 285 297 313 312 312 325 347 6 6 5 349 297 271 262 259 246 232
262 253 260 261 251 272 290 276 282 258 253 267 306 220 208 204 239 190 229 185 193 206 192 266 289 273 296 295 304 309 294 303 317 349 2 9 15 23 6 308 284 263 253 239
318 252 255 266 270 279 287 282 278 283 259 245 257 257 235 222 210 231 187 181 178 183 224 259 265 281 292 294 306 299 247 292 339 346 359 7 29 38 45 49 15 264 253 250
268 311 260 272 270 265 269 264 272 280 283 272 224 238 242 195 169 166 183 181 204 211 226 234 274 305 303 312 322 261 234 289 335 343 354 352 342 351 1 3 21 32 307 233
231 268 280 279 261 266 267 259 289 280 269 282 230 192 173 163 164 174 180 184 210 202 192 223 265 297 308 311 312 261 239 275 293 323 356 0 349 324 334 342 347 2 30 351
231 242 252 259 272 273 270 263 279 269 286 285 230 186 184 192 197 190 203 199 184 183 193 228 275 310 304 288 288 265 254 260 279 331 351 352 349 331 317 315 321 323 336 358
241 240 248 245 253 261 267 275 272 264 339 200 189 194 207 213 213 191 198 191 187 186 195 211 268 284 284 275 267 267 255 249 269 297 310 324 326 321 318 317 307 298 299 312
252 252 243 239 241 239 286 269 265 249 194 219 240 233 202 177 211 184 182 179 196 204 222 267 281 290 275 266 263 256 252 253 261 277 287 302 307 303 300 303 297 287 285 289
239 275 275 254 271 271 316 305 262 221 231 190 147 291 228 207 205 194 185 187 192 217 273 283 288 277 255 249 249 248 255 261 256 267 281 286 295 295 295 290 287 280 277 281
295 288 288 278 260 266 278 278 244 250 237 253 231 125 224 226 195 185 183 180 220 258 269 278 280 263 248 245 250 258 255 261 271 285 289 291 292 291 294 291 289 282 280 277
297 294 296 288 282 280 236 256 260 255 277 262 254 238 277 162 191 189 197 246 271 272 283 280 267 256 253 247 253 259 264 270 274 276 278 280 282 286 291 289 286 285 283 286
292 309 311 304 305 285 267 278 267 256 223 236 205 195 197 220 217 216 217 232 241 273 298 282 269 261 254 242 242 248 258 268 275 277 278 281 285 288 289 290 292 287 283 284